Location: Tucson
(32.2217°N, 110.9265°W)
Time: 08:16:58
(UTC-07:00)

Tiros 1 - Pass Details

Date: 27 October 2021
Orbit: 629 x 664 km, 48.4° (Epoch: 27 November)

Event Time Altitude Azimuth Distance (km) Brightness Sun altitude
Rises 11:26:50 0° 300° (WNW) 2,981 10.3 43.7°
Reaches altitude 10° 11:30:58 10° 334° (NNW) 2,062 9.4 43.9°
Maximum altitude 11:32:29 11° 353° (N) 1,968 9.3 44.0°
Drops below altitude 10° 11:34:01 10° 12° (NNE) 2,056 9.4 44.0°
Sets 11:38:06 0° 47° (NE) 2,957 10.3 44.2°
